Location: ??????????
(44.2167°N, 135.5333°E)
Time: 15:24:04
(UTC+00:00)

SeaSat 1 - Pass Details

Date: 15 June 2025
Orbit: 738 x 740 km, 108.0° (Epoch: 15 July)

Event Time Altitude Azimuth Distance (km) Brightness Sun altitude
Exits shadow 14:34:14 30° 111° (ESE) 1,296 3.4 -22.2°
Maximum altitude 14:36:14 48° 56° (ENE) 962 3.1 -22.3°
Drops below altitude 10° 14:40:56 10° 343° (NNW) 2,256 6.0 -22.3°
Sets 14:43:15 0° 338° (NNW) 3,183 7.0 -22.4°
